Regional Weather Roundup
Issued by NWS

Home | Current Version | Previous Version | Graphics & Text | Print | Product List | Glossary On
Versions: 1 2 3 4 5 6 7 8 9 10 11 12 13 14 15 16 17 18 19 20 21 22 23 24 25 26 27
000
ASUS45 KSLC 301810
RWRUT

UTAH REGIONAL WEATHER ROUNDUP
NATIONAL WEATHER SERVICE SALT LAKE CITY UT
1200 PM MDT SAT APR 30 2016

UTZ001>011-023>025-301900-

NORTHERN UTAH

CITY           SKY/WX    TMP DP  RH WIND       PRES   REMARKS
BRIGHAM CITY   CLOUDY    54  28  36 E7        29.99R
HILL AFB       NOT AVBL
LOGAN          PTSUNNY   53  32  44 E14       29.99S
OGDEN          CLOUDY    54  31  41 NE14      29.96R
PROVO AIRPORT  PTSUNNY   54  36  50 NW14      29.93S
SALT LAKE CITY PTSUNNY   59  32  36 N13       29.93F
VERNAL         CLOUDY    48  29  47 NE17G24   29.99R
WENDOVER       CLOUDY    54  39  58 N12G17    29.99S
HEBER CITY     PTSUNNY   52  30  43 E3        29.94S

$$

UTZ012>022-026-027-301900-

SOUTHERN/CENTRAL UTAH

CITY           SKY/WX    TMP DP  RH WIND       PRES   REMARKS
BLANDING       PTSUNNY   51  36  55 N10       29.96S
BRYCE CANYON   LGT SNOW  34  32  92 S7        29.92S VSB 1   WCI  28
CEDAR CITY     LGT RAIN  46  39  76 VRB5      29.84S
DELTA          PTSUNNY   54  36  50 N9        29.91S
HANKSVILLE     CLOUDY    54  37  54 NE10G17   29.92S
MILFORD        CLOUDY    52  39  61 NE22      29.88F
MOAB/CYNLANDS  MOSUNNY   57  32  38 NE12      29.88S
PRICE          PTSUNNY   53  27  36 N9        29.92F
ST GEORGE      CLOUDY    57  43  58 NE8       29.84S
KANAB          CLOUDY    48  43  81 NE6       29.91

$$

REGIONAL REPORTS     COLORADO/ARIZONA

CITY           SKY/WX    TMP DP  RH WIND       PRES   REMARKS
CRAIG, CO      LGT RAIN  42  33  70 NE12      29.93S
GRAND JUNCTION PTSUNNY   51  32  48 W8        29.90F
RIFLE          CLOUDY    47  31  53 VRB6      29.91S
MONTROSE       CLOUDY    51  29  42 NW9       29.90F
CORTEZ         CLOUDY    53  33  46 VRB5      29.88F
PAGE, AZ       LGT RAIN  50  45  83 NW5       29.87S
GRAND CANYON   CLOUDY    39  36  89 NE8       29.89S WCI  33
KINGMAN        LGT RAIN  50  44  80 W18       29.80R
FLAGSTAFF      PTSUNNY   45  36  70 SW12      29.87F

$$

REGIONAL REPORTS    NEVADA/IDAHO/WYOMING

CITY           SKY/WX    TMP DP  RH WIND       PRES   REMARKS
LAS VEGAS, NV  CLOUDY    51  37  58 S5        29.75S
ELY            PTSUNNY   45  38  76 N21       29.96S
ELKO           CLOUDY    50  35  56 NE13G23   30.02S
POCATELLO, ID  CLOUDY    50  39  66 NE9       30.04S
BURLEY         CLOUDY    46  40  79 W6        30.06S
EVANSTON, WY   CLOUDY    41  28  60 E16       30.03R
ROCK SPRINGS   LGT SNOW  36  32  85 NE18G25   30.04R FOG     WCI  26
KEMMERER         N/A     37  32  81 E7        30.05R WCI  32

$$




USA.gov is the U.S. government's official web portal to all federal, state and local government web resources and services.